Regional Weather Roundup
Issued by NWS

Home | Current Version | Previous Version | Text Only | Print | Product List | Glossary On
Versions: 1 2 3 4 5 6 7 8 9 10 11 12 13 14 15 16 17 18 19 20 21 22 23 24 25 26 27 28
000
ASUS45 KTFX 231110
RWRMT
MONTANA REGIONAL WEATHER ROUNDUP
NATIONAL WEATHER SERVICE GREAT FALLS MT
400 AM MST FRI FEB 23 2018

NOTE: "FAIR" INDICATES FEW OR NO CLOUDS BELOW 12000 FEET WITH NO
SIGNIFICANT WEATHER AND/OR OBSTRUCTIONS TO VISIBILITY.

MTZ001>007-043-231200-
WEST OF THE DIVIDE

CITY           SKY/WX    TMP DP  RH WIND       PRES   REMARKS
KALISPELL      FAIR      -6  -8  91 W3        30.19S
MISSOULA       FAIR       5   0  79 CALM      30.19R
BUTTE          MOCLDY     4  -1  80 NE3       29.99S
MULLAN PASS    CLOUDY     7   5  91 NW5       29.97F
ANACONDA         N/A      0  -4  85 W3        30.05S
DEER LODGE       N/A      1  -2  85 W5        30.09S
HAMILTON         N/A     18  12  79 MISG      30.16R
PLAINS           N/A     -2 -12  62 CALM      30.23F VSB 0
RONAN            N/A     -4  -8  84 SE6       30.20F WCI -16
THOMPSON FALLS   N/A      1  -4  79 CALM      30.26S
$$

MTZ008-052>055-231200-
SOUTHWEST MONTANA

CITY           SKY/WX    TMP DP  RH WIND       PRES   REMARKS
BOZEMAN        FAIR       4  -1  80 W5        30.07S
DILLON         CLOUDY    -1  -1 100 NE7       29.99R WCI -14
ENNIS          CLOUDY     5   1  85 CALM      30.03R
W YELLOWSTONE  LGT SNOW   1   0  92 CALM      29.90R
THREE FORKS      N/A      6  -2  70 CALM      30.06R
TWIN BRIDGES     N/A     11   2  67 N5        30.00R
$$

MTZ009-010-012-014-046-048-049-054-231200-
EAST SLOPES AND CENTRAL MONTANA

CITY           SKY/WX    TMP DP  RH WIND       PRES   REMARKS
CUT BANK       FAIR      -7 -13  75 CALM      30.01F
GREAT FALLS    FAIR      -6  -9  86 S8        30.06F WCI -21
HELENA         CLOUDY    -1  -6  79 CALM      30.12S
AUGUSTA        FAIR      -5  -9  85 W7        29.99F WCI -20
CHOTEAU          N/A     -2  -9  71 SW7       30.04F WCI -16
RAYNESFORD     FAIR      -4  -9  77 E3        30.05F
WHITE SULPHUR    N/A     -9 -13  84 CALM      30.01
$$

MTZ011-013-016-021-045-047-050-051-231200-
NORTH CENTRAL MONTANA

CITY           SKY/WX    TMP DP  RH WIND       PRES   REMARKS
HAVRE          FAIR     -11 -14  86 W9        30.16F WCI -29
LEWISTOWN      FAIR      -6 -11  79 SE7       30.04F WCI -20
N BAR RANCH    FAIR      -8 -15  71 NW5       30.04F
CHINOOK          N/A    -18 -24  76 CALM      30.19F
GEYSER         FAIR      -2  -9  71 SW12      30.04F WCI -20
STANFORD       FAIR       2  -7  67 W9        30.01F WCI -13
$$

MTZ017>020-022>027-061-062-231200-
NORTHEAST MONTANA

CITY           SKY/WX    TMP DP  RH WIND       PRES   REMARKS
GLASGOW        FAIR     -15 -20  78 CALM      30.21S
GLENDIVE       FAIR      -6 -15  65 S5        30.22S
JORDAN           N/A    -16 -21  78 W5        30.18F
MALTA          CLEAR    -15 -20  76 W6        30.20F WCI -29
SIDNEY         FAIR     -16 -21  78 S7        30.25  WCI -32
WOLF POINT     FAIR     -12 -18  74 SW10      30.25F WCI -31
PLENTYWOOD       N/A     -8 -11  84 E5        30.18R
POPLAR           N/A    -13 -18  77 CALM      30.25F
$$

MTZ028>42-056>058-231200-
SOUTHCENTRAL AND SOUTHEAST MONTANA

CITY           SKY/WX    TMP DP  RH WIND       PRES   REMARKS
BAKER          FAIR     -10 -13  86 NW6       30.18R WCI -23
BILLINGS       FAIR       0  -5  79 SW8       30.12F WCI -14
LIVINGSTON     CLOUDY     2  -3  80 NW6       30.05S WCI  -9
MILES CITY     FAIR     -14 -18  82 SW5       30.21F
BIG TIMBER     MOCLDY     0  -8  71 W8        30.09S WCI -15
FORSYTH          N/A    -11 -15  84 CALM      30.21S
LAUREL           N/A     -4  -9  77 W9        30.15S WCI -20
$$

REGIONAL REPORTS...DAKOTAS

CITY           SKY/WX    TMP DP  RH WIND       PRES   REMARKS
WILLISTON      CLOUDY    -6 -11  79 S6        30.24S WCI -19
MINOT          FAIR       3  -3  76 W13       30.18S WCI -14
DICKINSON      FAIR      -4  -9  79 NW9       30.14R WCI -20
BEACH          FAIR      -8 -13  77 CALM      30.20S
CROSBY         CLOUDY     3   0  85 SW6       30.19F WCI  -8
TIOGA          CLOUDY    -2  -4  92 W6        30.18F WCI -14
WATFORD CITY   MOCLDY    -9 -15  77 SW7       30.22S WCI -24
BISMARCK       FAIR       8   1  73 NW6       30.20R WCI  -2
GRAND FORKS    LGT SNOW  17  14  88 NW8       30.15R FOG     WCI   7
FARGO          LGT SNOW  19  17  92 N6        30.12S FOG     WCI  11
BUFFALO SD       N/A     -1  -7  75 W7        30.07R WCI -14
RAPID CITY     FAIR       1  -6  72 W3        30.13S
$$

REGIONAL REPORTS...WYOMING/IDAHO/WASHINGTON

CITY           SKY/WX    TMP DP  RH WIND       PRES   REMARKS
GILLETTE       FAIR      -9 -14  78 S6        30.07F WCI -22
SHERIDAN       FAIR      -5  -8  87 CALM      30.08S
BUFFALO WY     FAIR       4  -6  63 S7        30.01F WCI  -8
CODY           FAIR      -2  -6  83 SW8       30.02F WCI -17
YELLOWSTONE LA   N/A    -11 -15  82 CALM      29.90R
IDAHO FALLS    CLOUDY    19  13  77 SW9       30.01R WCI   8
SALMON         FAIR      16  11  80 CALM      30.08R
BOISE          FAIR      15   9  76 W3        30.17R
SPOKANE        FAIR      11   5  77 SW5       30.25S
$$

REGIONAL REPORTS...ALBERTA

CITY           SKY/WX    TMP DP  RH WIND       PRES   REMARKS
CALGARY        PTCLDY    -2  -6  84 SW3       29.89F
CARDSTON         N/A      5  -8  56 SW9         N/A  WCI  -9
EDMONTON       CLEAR      9   0  66 S9        29.86F WCI  -5
FORT MCMURRAY  PTCLDY    18   7  62 S10       29.76F WCI   6
HIGH LEVEL     CLOUDY    16   9  73 S5        29.54F
LETHBRIDGE     CLEAR      0  -9  65 SW14      29.99F WCI -19
LLOYDMINSTER   CLEAR      1   0  92 S10       29.97F WCI -14
MEDICINE HAT   CLEAR     -4  -8  84 SE3       30.10F
MILK RIVER       N/A     -4  -8  84 SW5         N/A
PEACE RIVER    PTCLDY     9  -2  61 CALM      29.65F
PINCHER CREEK  CLEAR     10   1  67 W18       29.94F WCI  -8
WATERTON GATE    N/A     14   0  52 SW26G37     N/A  WCI  -6
$$

REGIONAL REPORTS...SASKATCHEWAN

CITY           SKY/WX    TMP DP  RH WIND       PRES   REMARKS
CORONACH         N/A    -11 -17  77 NW2         N/A
CYPRESS HILLS    N/A      5   0  78 SW6         N/A  WCI  -6
ESTEVAN        FLURRIES   3   0  85 SW7       30.18S WCI  -9
MOOSE JAW        N/A      9   5  85 W8          N/A  WCI  -4
PRINCE ALBERT  PTCLDY   -15 -18  84 SW3       30.13F
REGINA         FLURRIES   1  -2  85 VRB2      30.17S
ROCKGLEN         N/A      7   3  85 W7          N/A  WCI  -5
SASKATOON      PTCLDY    -8 -11  84 S7        30.15F WCI -22
SWIFT CURRENT  FLURRIES   7   3  85 SW9       30.09F WCI  -7
VAL MARIE        N/A    -22 -29  69 NE2         N/A
$$




USA.gov is the U.S. government's official web portal to all federal, state and local government web resources and services.